Date String (YYYY-MM-DD hh:mm:ss) UTC,Instrument flags,absolute air pressure of the measurement (hPa),sample flow rate (lpm),inlet stack bypass flow (lpm),air temperature of the measurement (°C),ambient temperature measured by the external sensor (°C),aerosol sample conditioner tube jacket temperature (°C),OPC LED temperature (°C),internal box temperature (°C),relative humidity of the measurement (%),span deviation,mass concentration of particles derived from Lorenz-Mie calculation of OPC scattering (μg/m³),mass concentration of particles derived from Lorenz-Mie calculation of OPC scattering (μg/m³),mass concentration of particles derived from Lorenz-Mie calculation of OPC scattering (μg/m³)
DateTimeUTC,F1_M11,P_M11,Q1_M11,Q2_M11,T1_M11,T2_M11,T3_M11,T4_M11,T5_M11,U1_M11,ZSPAN_M11,X2_M11,X0_M11,X1_M11
2024-06-04 11:00:00,SystemResetWarning,0822.1,4.99,000.00,030.6,029.8,000.0,038.9,032.2,017.4,0000.0,0001.23,0002.17,0000.72
2024-06-04 11:01:00,SystemResetWarning,0822.1,5.01,000.00,030.6,029.8,000.0,038.9,032.2,017.3,0000.0,0001.18,0002.18,0000.72
2024-06-04 11:02:00,SystemResetWarning,0822.1,5.01,000.00,030.6,029.8,000.0,038.9,032.2,017.5,0000.0,0001.17,0002.18,0000.72
2024-06-04 11:03:00,SystemResetWarning,0822.2,4.99,000.00,030.6,029.8,000.0,038.9,032.2,017.5,0000.0,0001.17,0002.23,0000.72
2024-06-04 11:04:00,SystemResetWarning,0822.2,4.99,000.00,030.6,029.8,000.0,038.9,032.3,017.6,0000.0,0001.20,0002.30,0000.73
2024-06-04 11:05:00,SystemResetWarning,0822.2,5.00,000.00,030.6,029.8,000.0,038.9,032.3,017.6,0000.0,0001.23,0002.48,0000.73
2024-06-04 11:06:00,SystemResetWarning,0822.2,5.01,000.00,030.6,029.9,000.0,039.0,032.3,017.5,0000.0,0001.21,0002.82,0000.72
2024-06-04 11:07:00,SystemResetWarning,0822.2,5.01,000.00,030.6,029.9,000.0,039.0,032.3,017.4,0000.0,0001.23,0002.92,0000.72
2024-06-04 11:08:00,SystemResetWarning,0822.3,5.00,000.00,030.6,029.9,000.0,039.0,032.3,017.4,0000.0,0001.32,0003.36,0000.72
2024-06-04 11:09:00,SystemResetWarning,0822.2,4.99,000.00,030.6,029.9,000.0,039.0,032.3,017.3,0000.0,0001.32,0004.81,0000.72
2024-06-04 11:10:00,SystemResetWarning,0822.2,5.00,000.00,030.7,029.9,000.0,039.0,032.3,017.3,0000.0,0001.38,0005.00,0000.72
2024-06-04 11:11:00,SystemResetWarning,0822.2,5.00,000.00,030.7,029.9,000.0,039.0,032.3,017.4,0000.0,0001.39,0005.06,0000.71
2024-06-04 11:12:00,SystemResetWarning,0822.3,4.99,000.00,030.7,029.9,000.0,039.0,032.3,017.4,0000.0,0001.44,0005.08,0000.71
2024-06-04 11:13:00,SystemResetWarning,0822.3,4.99,000.00,030.7,029.9,000.0,039.0,032.3,017.4,0000.0,0001.48,0005.15,0000.72
2024-06-04 11:14:00,SystemResetWarning,0822.3,5.00,000.00,030.7,029.9,000.0,039.0,032.4,017.4,0000.0,0001.51,0005.24,0000.73
2024-06-04 11:15:00,SystemResetWarning,0822.4,5.01,000.00,030.7,030.0,000.0,039.0,032.4,017.4,0000.0,0001.58,0005.93,0000.74
2024-06-04 11:16:00,SystemResetWarning,0822.4,5.01,000.00,030.7,030.0,000.0,039.0,032.4,017.2,0000.0,0001.59,0006.96,0000.75
2024-06-04 11:17:00,SystemResetWarning,0822.4,4.99,000.00,030.7,030.0,000.0,039.0,032.4,017.3,0000.0,0001.59,0006.57,0000.75
2024-06-04 11:18:00,SystemResetWarning,0822.4,4.99,000.00,030.7,030.0,000.0,039.0,032.4,017.2,0000.0,0001.54,0006.36,0000.75
2024-06-04 11:19:00,SystemResetWarning,0822.4,4.99,000.00,030.7,030.0,000.0,039.0,032.4,017.1,0000.0,0001.48,0006.45,0000.75
2024-06-04 11:20:00,SystemResetWarning,0822.4,5.00,000.00,030.8,030.0,000.0,039.1,032.4,017.1,0000.0,0001.49,0005.58,0000.76
2024-06-04 11:21:00,SystemResetWarning,0822.4,5.01,000.00,030.8,030.0,000.0,039.1,032.4,017.1,0000.0,0001.43,0005.41,0000.75
2024-06-04 11:22:00,SystemResetWarning,0822.3,5.01,000.00,030.8,030.0,000.0,039.1,032.4,016.9,0000.0,0001.42,0005.38,0000.75
2024-06-04 11:23:00,SystemResetWarning,0822.4,5.01,000.00,030.8,030.0,000.0,039.1,032.5,016.7,0000.0,0001.36,0005.23,0000.73
2024-06-04 11:24:00,SystemResetWarning,0822.4,5.00,000.00,030.8,030.0,000.0,039.1,032.5,016.8,0000.0,0001.35,0005.22,0000.72
2024-06-04 11:25:00,SystemResetWarning,0822.5,5.00,000.00,030.8,030.0,000.0,039.1,032.4,016.8,0000.0,0001.34,0005.21,0000.70
2024-06-04 11:26:00,SystemResetWarning,0822.4,5.00,000.00,030.8,030.0,000.0,039.1,032.4,016.9,0000.0,0001.29,0004.77,0000.68
2024-06-04 11:27:00,SystemResetWarning,0822.4,5.00,000.00,030.8,030.0,000.0,039.1,032.5,016.9,0000.0,0001.29,0004.21,0000.66
2024-06-04 11:28:00,SystemResetWarning,0822.4,5.00,000.00,030.8,030.0,000.0,039.1,032.5,016.9,0000.0,0001.26,0004.38,0000.66
2024-06-04 11:29:00,SystemResetWarning,0822.5,4.99,000.00,030.8,030.0,000.0,039.1,032.5,016.9,0000.0,0001.27,0004.45,0000.65
2024-06-04 11:30:00,SystemResetWarning,0822.4,4.99,000.00,030.8,030.1,000.0,039.1,032.5,016.9,0000.0,0001.25,0003.86,0000.64
2024-06-04 11:31:00,SystemResetWarning,0822.4,5.00,000.00,030.8,030.1,000.0,039.1,032.5,017.0,0000.0,0001.22,0003.29,0000.63
2024-06-04 11:32:00,SystemResetWarning,0822.4,5.01,000.00,030.8,030.1,000.0,039.1,032.5,017.1,0000.0,0001.20,0004.30,0000.63
2024-06-04 11:33:00,SystemResetWarning,0822.4,5.01,000.00,030.8,030.1,000.0,039.2,032.5,017.1,0000.0,0001.16,0004.49,0000.62
2024-06-04 11:34:00,SystemResetWarning,0822.5,5.01,000.00,030.8,030.1,000.0,039.1,032.5,017.3,0000.0,0001.13,0004.45,0000.63
2024-06-04 11:35:00,SystemResetWarning,0823.0,5.00,000.00,030.8,030.1,000.0,039.2,032.5,017.5,0000.0,0001.09,0004.36,0000.62
2024-06-04 11:36:00,SystemResetWarning,0822.8,4.99,000.00,030.8,030.1,000.0,039.2,032.5,017.5,0000.0,0001.04,0004.16,0000.63
2024-06-04 11:37:00,SystemResetWarning,0822.7,4.99,000.00,030.8,030.1,000.0,039.2,032.5,017.5,0000.0,0001.01,0004.44,0000.64
2024-06-04 11:38:00,SystemResetWarning,0822.7,4.99,000.00,030.8,030.1,000.0,039.2,032.5,017.6,0000.0,0000.98,0004.05,0000.65
2024-06-04 11:39:00,SystemResetWarning,0822.6,5.01,000.00,030.8,030.0,000.0,039.2,032.5,017.6,0000.0,0000.98,0003.71,0000.66
2024-06-04 11:40:00,SystemResetWarning,0822.7,5.01,000.00,030.8,030.0,000.0,039.2,032.4,017.7,0000.0,0000.99,0003.67,0000.67
2024-06-04 11:41:00,SystemResetWarning,0822.7,4.99,000.00,030.8,030.0,000.0,039.2,032.5,017.5,0000.0,0001.01,0003.69,0000.68
2024-06-04 11:42:00,SystemResetWarning,0822.7,4.99,000.00,030.8,030.0,000.0,039.2,032.5,017.4,0000.0,0001.07,0003.85,0000.69
2024-06-04 11:43:00,SystemResetWarning,0822.7,5.01,000.00,030.8,030.0,000.0,039.2,032.5,017.6,0000.0,0001.15,0003.40,0000.71
2024-06-04 11:44:00,SystemResetWarning,0822.7,5.01,000.00,030.8,030.0,000.0,039.2,032.5,017.5,0000.0,0001.16,0002.87,0000.71
2024-06-04 11:45:00,SystemResetWarning,0822.9,5.00,000.00,030.8,030.0,000.0,039.2,032.5,017.6,0000.0,0001.19,0002.89,0000.71
2024-06-04 11:46:00,SystemResetWarning,0822.9,4.99,000.00,030.8,030.0,000.0,039.2,032.5,017.6,0000.0,0001.25,0003.03,0000.73
2024-06-04 11:47:00,SystemResetWarning,0822.9,5.00,000.00,030.8,030.0,000.0,039.2,032.4,017.7,0000.0,0001.31,0003.18,0000.74
2024-06-04 11:48:00,SystemResetWarning,0822.8,5.01,000.00,030.8,030.0,000.0,039.2,032.5,017.5,0000.0,0001.32,0002.94,0000.74
2024-06-04 11:49:00,SystemResetWarning,0822.8,5.01,000.00,030.8,030.0,000.0,039.2,032.5,017.3,0000.0,0001.33,0002.78,0000.73
2024-06-04 11:50:00,SystemResetWarning,0822.8,5.00,000.00,030.8,030.0,000.0,039.2,032.5,017.5,0000.0,0001.39,0002.95,0000.74
2024-06-04 11:51:00,SystemResetWarning,0823.2,4.98,000.00,030.8,030.0,000.0,039.2,032.5,017.1,0000.0,0001.40,0003.14,0000.73
2024-06-04 11:52:00,SystemResetWarning,0823.2,5.00,000.00,030.8,030.0,000.0,039.2,032.5,017.1,0000.0,0001.40,0003.22,0000.72
2024-06-04 11:53:00,SystemResetWarning,0823.1,5.02,000.00,030.8,030.0,000.0,039.2,032.4,017.2,0000.0,0001.37,0003.19,0000.71
2024-06-04 11:54:00,SystemResetWarning,0822.9,4.99,000.00,030.8,030.0,000.0,039.2,032.4,017.2,0000.0,0001.29,0002.95,0000.70
2024-06-04 11:55:00,SystemResetWarning,0822.9,4.99,000.00,030.8,030.0,000.0,039.2,032.5,017.2,0000.0,0001.26,0002.92,0000.69
2024-06-04 11:56:00,SystemResetWarning,0823.0,4.99,000.00,030.8,030.0,000.0,039.2,032.5,017.1,0000.0,0001.26,0002.95,0000.69
2024-06-04 11:57:00,SystemResetWarning,0823.0,5.01,000.00,030.8,030.0,000.0,039.2,032.5,017.2,0000.0,0001.21,0002.87,0000.67
2024-06-04 11:58:00,SystemResetWarning,0823.0,5.01,000.00,030.8,030.0,000.0,039.2,032.5,017.0,0000.0,0001.18,0002.82,0000.66
2024-06-04 11:59:00,SystemResetWarning,0823.0,5.00,000.00,030.8,030.0,000.0,039.2,032.5,017.2,0000.0,0001.17,0002.67,0000.65
